Skip Page Navigation
NASA JPL Caltech
NASA Logo - Jet Propulsion Laboratory + View the NASA Portal
+ Near-Earth Object (NEO) Program
Search JPL
JPL Home Earth Solar System Stars & Galaxies Technology
JPL Solar System Dynamics
BODIES ORBITS EPHEMERIDES TOOLS PHYSICAL DATA DISCOVERY FAQ SITE MAP
JPL Small-Body Database Browser
Search: [ help ]  
314988 Sireland (2006 XO67)
Classification: Main-belt Asteroid          SPK-ID: 2314988
Ephemeris | Orbit Diagram | Orbital Elements | Physical Parameters | Discovery Circumstances | Close-Approach Data ]

[ hide orbit diagram ]
Orbit Diagram
Note: Make sure you have Java enabled on your browser to see the applet. This applet is provided as a 3D orbit visualization tool. The applet was implemented using 2-body methods, and hence should not be used for determining accurate long-term trajectories (over several years or decades) or planetary encounter circumstances. For accurate long-term ephemerides, please instead use our Horizons system.
Orbit Viewer

Additional Notes: the orbits shown in the applet are color coded. The planets are white lines, and the asteroid/comet is a blue line. The bright white line indicates the portion of the orbit that is above the ecliptic plane, and the darker portion is below the ecliptic plane. Likewise for the asteroid/comet orbit, the light blue indicates the portion above the ecliptic plane, and the dark blue the portion below the ecliptic plane.

Orbit Viewer applet originally written and kindly provided by Osamu Ajiki (AstroArts), and further modified by Ron Baalke (JPL).


Orbital Elements at Epoch 2456400.5 (2013-Apr-18.0) TDB
Reference: JPL 1 (heliocentric ecliptic J2000)
 Element Value Uncertainty (1-sigma)   Units 
e .09159433989476537 2.0162e-07  
a 3.04758639796272 1.9006e-07 AU
q 2.768444733569059 7.3457e-07 AU
i 9.887185908379326 1.813e-05 deg
node 190.7699372268729 6.8537e-05 deg
peri 95.42095519461245 0.0002196 deg
M 281.9185232511952 0.00022781 deg
tp 2456821.980983178880
(2014-Jun-13.48098318)
0.0012585 JED
period 1943.266959877517
5.32
0.00018178
4.977e-07
d
yr
n .1852550408322131 1.733e-08 deg/d
Q 3.326728062356382 2.0747e-07 AU
  Orbit Determination Parameters
   # obs. used (total)      98  
   data-arc span      2320 days (6.35 yr)  
   first obs. used      2006-12-13  
   last obs. used      2013-04-20  
   planetary ephem.      DE405  
   SB-pert. ephem.      SB405-CPV-2  
   condition code      0  
   fit RMS      .52705  
   data source      ORB  
   producer      Otto Matic  
   solution date      2013-Apr-29 23:24:03  

Additional Information
 Earth MOID = 1.77556 AU 
 T_jup = 3.209 
[ show covariance matrix ]

Ephemeris | Orbit Diagram | Orbital Elements | Physical Parameters | Discovery Circumstances | Close-Approach Data ]

Physical Parameter Table
Parameter Symbol Value Units Sigma Reference Notes
absolute magnitude H 15.83 mag .52639 1 autocmod 2.5c

314988 Sireland           Discovered 2006 Dec. 13 by D. D. Balam at Mauna Kea.
Sarah Ireland (b. 1996) displayed unrivalled enthusiasm in the pursuit of astronomical knowledge, following in the Canadian tradition of astronomical excellence and embodying the spirit of Beyond the International Year of Astronomy.
NOTE: some special characters may not display properly (any characters within {} are an attempt to place the proper accent above a character)
Reference: 20120703/MPCPages.arcLast Updated: 2012-07-09

[ show close-approach data ]
Alternate Designations
 2006 XO67 = 2008 EW150 
Ephemeris | Orbit Diagram | Orbital Elements | Physical Parameters | Discovery Circumstances | Close-Approach Data ]
ABOUT SSD CREDITS/AWARDS PRIVACY/COPYRIGHT GLOSSARY LINKS
FirstGov 2013-May-21 14:04 UT
(server date/time)  
NASA Home Page
Site Manager:   Donald K. Yeomans
Webmaster  Alan B. Chamberlin